Location: Bluff Heights
(33.7692°N, 118.1592°W)
Time: 22:05:47
(UTC+00:00)

First-Move - Pass Details

Date: 03 October 2021
Orbit: 574 x 666 km, 97.6° (Epoch: 16 October)

Event Time Altitude Azimuth Distance (km) Brightness Sun altitude
Rises 11:38:45 0° 28° (NNE) 2,811 ? -27.6°
Reaches altitude 10° 11:41:19 10° 43° (NE) 1,897 ? -27.1°
Maximum altitude 11:44:33 22° 96° (E) 1,267 ? -26.5°
Drops below altitude 10° 11:47:45 10° 148° (SSE) 1,875 ? -25.8°
Sets 11:50:15 0° 163° (SSE) 2,768 ? -25.3°
